This demonstration page uses our WeatherBlox Daily Observations layout. Learn more.

Left ArrowRight Arrow

39.12711, -84.51439

Hourly Observations for May 14, 2016

Temp ( °F °C ) Dew Point ( °F °C ) Humidity (%) Winds ( mph kmh ) Pressure ( in mb ) Visibility ( mi km ) Precip ( " mm )
12:53 am 00:53 Clear 53 11.7 52 11.1 96 96 Calm 29.91 1013 10 16 0.00 0.00
1:53 am 01:53 Mostly Clear 54 12.2 52 11.1 93 93 W 3 6 29.88 1012 10 16 0.00 0.00
2:53 am 02:53 Mostly Clear 51 10.6 51 10.6 100 100 Calm 29.84 1010 10 16 0.00 0.00
3:53 am 03:53 Cloudy with Light Rain 54 12.2 53 11.7 97 97 ESE 5 7 29.82 1010 7 11 0.02 0.51
4:53 am 04:53 Cloudy 54 12.2 52 11.1 93 93 SSW 6 9 29.78 1009 10 16 0.01 0.25
5:53 am 05:53 Cloudy with Light Rain 56 13.3 53 11.7 90 90 SSW 7 11 29.77 1008 10 16 0.02 0.51
6:18 am 06:18 Cloudy with Rain 55 13 54 12 94 94 SW 7 11 29.80 1009 5 8 0.00 0.00
6:53 am 06:53 Cloudy with Rain 56 13.3 55 12.8 97 97 WSW 13 20 29.79 1009 5 8 0.07 1.78
7:25 am 07:25 Cloudy with Heavy Rain 53 11.7 52 11.1 96 96 WNW 7 11 29.85 1011 3 4 0.11 2.79
7:35 am 07:35 Cloudy with Light Rain 52 11.1 52 11.1 100 100 W 12 19 29.88 1012 8 13 0.11 2.79
7:44 am 07:44 Cloudy with Light Rain 52 11 52 11 100 100 NNW 17 28 29.88 1012 5 8 0.00 0.00
7:53 am 07:53 Cloudy 51 10.6 51 10.6 100 100 NW 12 19 29.85 1011 10 16 0.13 3.30
8:53 am 08:53 Cloudy 51 10.6 48 8.9 89 89 WNW 14 22 29.88 1012 10 16 0.00 0.00
9:05 am 09:05 Cloudy with Light Rain 49 9.4 46 7.8 90 90 NW 16 26 29.94 1014 9 14 0.00 0.03
9:29 am 09:29 Cloudy 49 9.4 44 6.7 83 83 NW 8 13 29.94 1014 10 16 0.00 0.03
9:53 am 09:53 Cloudy 50 10 44 6.7 80 80 WNW 8 13 29.91 1013 10 16 0.00 0.03
10:53 am 10:53 Cloudy 50 10 40 4.4 68 68 WNW 8 13 29.93 1014 10 16 0.00 0.00
11:53 am 11:53 Cloudy 50 10 40 4.4 68 68 W 17 28 29.96 1014 10 16 0.00 0.00
12:53 pm 12:53 Cloudy 52 11.1 39 3.9 61 61 W 14 22 29.98 1015 10 16 0.00 0.00
1:53 pm 13:53 Cloudy 49 9.4 37 2.8 64 64 NW 12 19 29.99 1016 10 16 0.00 0.00
2:53 pm 14:53 Cloudy 48 8.9 36 2.2 63 63 W 18 30 30.01 1016 10 16 0.00 0.00
3:53 pm 15:53 Cloudy 48 8.9 36 2.2 63 63 WNW 18 30 30.03 1017 10 16 0.00 0.00
4:53 pm 16:53 Cloudy 47 8.3 34 1.1 61 61 NW 10 17 30.04 1017 10 16 0.00 0.00
5:53 pm 17:53 Cloudy 49 9.4 35 1.7 59 59 W 14 22 30.05 1018 10 16 0.00 0.00
6:53 pm 18:53 Cloudy 49 9.4 35 1.7 59 59 W 9 15 30.05 1018 10 16 0.00 0.00
7:53 pm 19:53 Cloudy 48 8.9 34 1.1 58 58 W 10 17 30.06 1018 10 16 0.00 0.00
8:53 pm 20:53 Cloudy 48 8.9 35 1.7 61 61 W 12 19 30.06 1018 10 16 0.00 0.00
9:53 pm 21:53 Cloudy 47 8.3 36 2.2 66 66 W 10 17 30.08 1019 10 16 0.00 0.00
10:53 pm 22:53 Cloudy 47 8.3 35 1.7 63 63 W 10 17 30.09 1019 10 16 0.00 0.00
11:53 pm 23:53 Cloudy 47 8.3 35 1.7 63 63 W 9 15 30.10 1019 10 16 0.00 0.00

Powered by AerisWeather